Regional Weather Roundup
Issued by NWS

Home | Current Version | Previous Version | Graphics & Text | Print | Product List | Glossary On
Versions: 1 2 3 4 5 6 7 8 9 10 11 12 13 14 15 16 17 18 19 20 21 22 23 24 25 26 27 28 29 30 31 32 33 34 35 36 37 38 39 40 41 42 43 44 45 46 47 48 49 50
000
ASUS45 KBOU 202007
RWRCO

WEATHER ROUNDUP FOR COLORADO
NATIONAL WEATHER SERVICE DENVER/BOULDER CO
200 PM MDT MON OCT 20 2014

NOTE: "FAIR" INDICATES FEW OR NO CLOUDS BELOW 12000 FEET WITH NO
SIGNIFICANT WEATHER AND/OR OBSTRUCTIONS TO VISIBILITY.

COZ001>005-013-030-031-202100-
...NORTHWEST COLORADO...

CITY           SKY/WX    TMP DP  RH WIND       PRES   REMARKS
CRAIG          MOSUNNY   71  35  26 W8        30.14F
HAYDEN         CLOUDY    64  34  32 NW6       30.16F
MEEKER         CLOUDY    67  35  30 SW8       30.15F
MOUNT WERNER   NOT AVBL
STEAMBOAT SPGS MOSUNNY   66  34  30 SW6       30.17F
WALDEN         PTSUNNY   63  30  29 SW3       30.23F
$$

COZ006>008-011-202100-
...WEST CENTRAL VALLEYS...

CITY           SKY/WX    TMP DP  RH WIND       PRES   REMARKS
GRAND JUNCTION SUNNY     71  44  37 VRB3      30.10F
MONTROSE       MOSUNNY   70  36  28 N7        30.15F
EAGLE          MOSUNNY   61  36  39 CALM      30.19F
RIFLE          CLOUDY    65  39  38 NE6       30.13F
DELTA          MOSUNNY   75  37  25 CALM      30.11F
NUCLA          MOSUNNY   70  37  30 NW10      30.18F
$$

COZ017>023-064>068-202100-
...SOUTHWEST COLORADO...

CITY           SKY/WX    TMP DP  RH WIND       PRES   REMARKS
DURANGO        SUNNY     64  39  39 CALM      30.21F
CORTEZ         MOSUNNY   70  39  32 S13G22    30.16F
PAGOSA SPRINGS MOSUNNY   64  33  31 SE5       30.26F
TELLURIDE      CLOUDY    58  30  34 SE6       30.32F
WOLF CREEK PAS PTSUNNY   43  32  65 CALM      30.47F
$$

COZ009-010-012-014-032>034-037-058>063-202100-
...CENTRAL COLORADO...

CITY           SKY/WX    TMP DP  RH WIND       PRES   REMARKS
ASPEN          MOSUNNY   63  33  32 NW7       30.21F
BUENA VISTA    MOSUNNY   64  32  29 S14G20    30.25F
COPPER MTN     PTSUNNY   54  21  28 SW5       30.46F
BERTHOUD PASS  PTSUNNY   37  34  87 MISG      30.50F
COTTONWOOD PAS MOSUNNY   61  32  33 SE7       30.35F
GUNNISON       PTSUNNY   63  32  31 SE7       30.26F
KREMMLING      SUNNY     70  28  21 SW12        N/A
LEADVILLE      MOSUNNY   54  23  30 W6        30.33F
MONARCH PASS   PTSUNNY   43  28  56 SW15      30.57F
SALIDA         MOSUNNY   68  32  26 E5        30.30F
SUNLIGHT       CLOUDY    48  34  57 W3        30.42F
WILKERSON PASS NOT AVBL
$$

COZ069>075-202100-
...SAN LUIS VALLEY/SANGRE DE CRISTO MOUNTAINS...

CITY           SKY/WX    TMP DP  RH WIND       PRES   REMARKS
ALAMOSA        SUNNY     65  31  28 VRB5      30.24F
LA VETA PASS   PTSUNNY   52  32  46 NE7       30.40F
SAGUACHE       MOSUNNY   63  32  31 S9        30.27F
$$

COZ035-036-038>040-202100-
...NORTHERN COLORADO FRONT RANGE...

CITY           SKY/WX    TMP DP  RH WIND       PRES   REMARKS
DENVER INTL AP MOSUNNY   77  34  21 S15       30.09F
DMNS CITY PARK   N/A     77  33  19 SE12      30.06F
AURORA         MOSUNNY   74  36  24 SE16      30.10F
FRONT RANGE AP NOT AVBL
ERIE MUNI ARPT SUNNY     74  38  27 N7        30.07F
BOULDER MUN AP SUNNY     72  39  30 NE6       30.07F
CENTENNIAL     MOSUNNY   73  34  23 SE13      30.11F
BROOMFIELD     MOSUNNY   75  39  27 N7        30.10F
FORT COLLINS   SUNNY     72  41  33 CALM      30.09F
LONGMONT       SUNNY     75  39  27 CALM      30.09F
$$

COZ041-046-047-076>085-087-088-202100-
...PIKES PEAK/PALMER DIVIDE AND SOUTHERN FOOTHILLS...

CITY           SKY/WX    TMP DP  RH WIND       PRES   REMARKS
COLO. SPRINGS  MOSUNNY   68  35  29 S14G26    30.19F
A. F. ACADEMY  SUNNY     68  33  27 SE20      30.19F
ELLICOTT         N/A     68  36  30 S17       30.18
FALCON         SUNNY     66  33  29 S14G21    30.23F
FORT CARSON    SUNNY     70  37  29 SE16G22   30.17F
LIMON          SUNNY     70  31  23 S16G22    30.15F
MONUMENT HILL  SUNNY     64  32  29 S20G25    30.20F
TRINIDAD       SUNNY     70  30  22 SE8G18    30.18F
$$

COZ042>045-048>051-090-091-202100-
...NORTHEAST COLORADO...

CITY           SKY/WX    TMP DP  RH WIND       PRES   REMARKS
GREELEY ARPT   SUNNY     73  41  31 CALM      30.07F
AKRON          SUNNY     76  32  20 S16       30.10F
BURLINGTON     SUNNY     74  38  27 S16G22    30.13F
WRAY           SUNNY     80  34  19 S10G21    30.10F
STERLING       SUNNY     82  37  20 S13G21    30.04F
HOLYOKE        SUNNY     79  34  19 S12G23    30.09F
FORT MORGAN    SUNNY     79  35  20 S15G21    30.07F
$$

COZ086-089-092>099-202100-
...SOUTHEAST COLORADO...

CITY           SKY/WX    TMP DP  RH WIND       PRES   REMARKS
PUEBLO         SUNNY     73  38  27 SE14G20   30.12F
LA JUNTA       SUNNY     74  42  31 SE8       30.13F
LAMAR          SUNNY     74  45  35 SE10      30.11F
SPRINGFIELD      N/A     72  45  37 E14G23    30.14F
$$



USA.gov is the U.S. government's official web portal to all federal, state and local government web resources and services.